Skip Page Navigation
NASA JPL Caltech
NASA Logo - Jet Propulsion Laboratory + View the NASA Portal
+ Center for Near-Earth Object Studies
JPL Home Earth Solar System Stars & Galaxies Technology
JPL Solar System Dynamics
BODIES ORBITS EPHEMERIDES TOOLS PHYSICAL DATA DISCOVERY FAQ SITE MAP
JPL Small-Body Database Browser
Search: [ help ]  
452727 (2006 AR37)
Classification: Main-belt Asteroid          SPK-ID: 2452727
Ephemeris | Orbit Diagram | Orbital Elements | Mission Design | Physical Parameters | Discovery Circumstances | Close-Approach Data ]

[ show orbit diagram ]
Orbital Elements at Epoch 2459000.5 (2020-May-31.0) TDB
Reference: JPL 15 (heliocentric ecliptic J2000)
 Element Value Uncertainty (1-sigma)   Units 
e .06085052395035295 6.6029e-08  
a 3.055767805826138 5.2729e-08 au
q 2.869822733770997 1.9471e-07 au
i 18.2811601493144 7.8817e-06 deg
node 121.2654500853201 1.8504e-05 deg
peri 343.4247142468739 6.3567e-05 deg
M 262.0009851847079 6.4285e-05 deg
tp 2459531.626734573935
(2021-Nov-13.12673457)
0.0003557 TDB
period 1951.097414672992
5.34
5.0501e-05
1.383e-07
d
yr
n .1845115458063054 4.7758e-09 deg/d
Q 3.241712877881279 5.5938e-08 au
  Orbit Determination Parameters
   # obs. used (total)      123  
   data-arc span      4954 days (13.56 yr)  
   first obs. used      2006-01-04  
   last obs. used      2019-07-29  
   planetary ephem.      DE431  
   SB-pert. ephem.      SB431-N16  
   condition code      0  
   norm. resid. RMS      .50442  
   source      ORB  
   producer      Otto Matic  
   solution date      2019-Sep-24 07:57:17  

Additional Information
 Earth MOID = 1.8896 au 
 Jupiter MOID = 1.8659 au 
 T_jup = 3.155 
[ show covariance matrix ]

Ephemeris | Orbit Diagram | Orbital Elements | Mission Design | Physical Parameters | Discovery Circumstances | Close-Approach Data ]

Physical Parameter Table
Parameter Symbol Value Units Sigma Reference Notes
absolute magnitude H 16.2   n/a MPO437750  

452727 (2006 AR37)          Discovered 2006-Jan-04 by Spacewatch at Kitt Peak
Reference: Last Updated: 2016-01-04

[ show close-approach data ]
Alternate Designations
 2006 AR37 = 2014 OR287 
Ephemeris | Orbit Diagram | Orbital Elements | Mission Design | Physical Parameters | Discovery Circumstances | Close-Approach Data ]
ABOUT SSD CREDITS/AWARDS PRIVACY/COPYRIGHT GLOSSARY LINKS
FirstGov 2020-Aug-08 00:57 UT
(server date/time)  
NASA Home Page
Site Manager:   Ryan S. Park
Webmaster  Alan B. Chamberlin